Flag for Micronesia Weather past 2 weeks in Palikir, Pohnpei, Micronesia

Now
79 °F

Mostly cloudy.


Feels Like: 83 °F
Forecast: 81 / 84 °F
Wind: 2 mph from Northeast

Location: Pohnpei

Current Time: Jun 3, 2015 at 2:48:32 AM

Latest Report: Jun 3, 2015 at 12:54 AM


Visibility: 15 mi

Pressure: 29.86 "Hg

Humidity: 88%

Dew point: 75 °F

Location of PalikirLocation

Historic Weather in Palikir — Graph

°F

Palikir temperature yesterday

Maximum temperature yesterday: 87 °F (at 9:54 AM)
Minimum temperature yesterday: 75 °F (at 2:50 AM)
Average temperature yesterday: 79 °F

Past Weeks' High & Low Weather Summary

 TemperatureHumidityPressure
High90 °F (May 28, 10:52 AM)99% (May 20, 4:52 AM)29.99 "Hg (May 20, 4:52 AM)
Low75 °F (Jun 2, 2:50 AM)66% (May 28, 10:52 AM)29.79 "Hg (May 27, 2:51 AM)
Average81 °F87%29.88 "Hg
* Reported May 19 12:55 AM — Jun 3 12:54 AM, Palikir, Weather by CustomWeather, © 2015

Note: Actual official high and low records may vary slightly from our data, if they occured in-between our weather recording intervals... More about our weather records

Advertising

Palikir weather history for previous 24 hours

 ConditionsComfort  
Time TempWeatherWind HumidityBarometerVisibility
12:54 AM
Wed, Jun 3
79 °FMostly cloudy.2 mph88%29.86 "Hg15 mi
11:54 PM
Tue, Jun 2
78 °FMostly cloudy.3 mph92%29.90 "Hg15 mi
10:52 PM79 °FMostly cloudy.3 mph87%29.90 "Hg15 mi
8:51 PM78 °FMostly cloudy.3 mph96%29.90 "Hg15 mi
7:55 PM78 °FMostly cloudy.3 mph93%29.87 "Hg14 mi
6:54 PM78 °FLight rain. Mostly cloudy.3 mph95%29.86 "Hg12 mi
5:52 PM77 °FSprinkles. Mostly cloudy.3 mph95%29.83 "Hg11 mi
4:54 PM78 °FSprinkles. Mostly cloudy.3 mph95%29.83 "Hg11 mi
3:50 PM78 °FMostly cloudy.3 mph96%29.82 "Hg15 mi
1:50 PM80 °FMostly cloudy.6 mph90%29.85 "Hg15 mi
12:52 PM82 °FMostly cloudy.3 mph87%29.85 "Hg15 mi
11:50 AM87 °FBroken clouds.3 mph75%29.85 "Hg15 mi
10:50 AM86 °FBroken clouds.3 mph75%29.87 "Hg15 mi
9:54 AM87 °FMostly cloudy.3 mph72%29.87 "Hg15 mi
8:53 AM86 °FBroken clouds.3 mph77%29.87 "Hg15 mi
7:52 AM82 °FOvercast.3 mph74%29.86 "Hg15 mi
6:51 AM77 °FMostly cloudy.5 mph96%29.83 "Hg15 mi
5:53 AM75 °FMostly cloudy.5 mph98%29.84 "Hg15 mi
4:54 AM78 °FMostly cloudy.No wind95%29.80 "Hg15 mi
3:51 AM76 °FOvercast.No wind96%29.82 "Hg15 mi
2:50 AM75 °FOvercast.6 mph98%29.81 "Hg15 mi
Weather by CustomWeather, © 2015

See weather overviewHow to use our weather pages